This is the latest recevied weather packets stored in our database for station/object SV1RVP-13. If no packets are shown the sender has not sent any weather packets the latest 10 day(s).
| Time | Temp. | Humidity | Pressure | Rain* | Wind** | Luminosity | Snow |
|---|---|---|---|---|---|---|---|
| 1787900312 | 31.67° C | 53% | 1013.7 hPa | 0 mm | - | - | - |
| 1787899734 | 31.67° C | 53% | 1013.8 hPa | 0 mm | - | - | - |
| 1787899123 | 31.11° C | 53% | 1013.8 hPa | 0 mm | - | - | - |
| 1787898526 | 31.11° C | 54% | 1013.9 hPa | 0 mm | - | - | - |
| 1787897918 | 30.56° C | 56% | 1013.9 hPa | 0 mm | - | - | - |
| 1787897322 | 30.56° C | 56% | 1013.8 hPa | 0 mm | - | - | - |
| 1787896716 | 30° C | 56% | 1013.9 hPa | 0 mm | - | - | - |
| 1787896124 | 30° C | 58% | 1013.8 hPa | 0 mm | - | - | - |
| 1787895508 | 29.44° C | 62% | 1013.6 hPa | 0 mm | - | - | - |
| 1787894928 | 30° C | 62% | 1013.6 hPa | 0 mm | - | - | - |
| 1787894321 | 30° C | 60% | 1013.5 hPa | 0 mm | - | - | - |
| 1787893727 | 30° C | 55% | 1013.4 hPa | 0 mm | - | - | - |
| 1787893120 | 29.44° C | 54% | 1013.6 hPa | 0 mm | - | - | - |
| 1787892514 | 29.44° C | 54% | 1013.6 hPa | 0 mm | - | - | - |
| 1787891914 | 29.44° C | 54% | 1013.5 hPa | 0 mm | - | - | - |
| 1787891334 | 29.44° C | 54% | 1013.5 hPa | 0 mm | - | - | - |
| 1787890722 | 28.89° C | 55% | 1013.6 hPa | 0 mm | - | - | - |
| 1787890127 | 28.89° C | 55% | 1013.4 hPa | 0 mm | - | - | - |
| 1787889536 | 28.89° C | 55% | 1013.5 hPa | 0 mm | - | - | - |
| 1787888908 | 28.89° C | 55% | 1013.4 hPa | 0 mm | - | - | - |
| 1787888317 | 28.89° C | 55% | 1013.4 hPa | 0 mm | - | - | - |
| 1787887712 | 28.89° C | 54% | 1013.3 hPa | 0 mm | - | - | - |
| 1787887110 | 29.44° C | 54% | 1013.4 hPa | 0 mm | - | - | - |
| 1787886508 | 29.44° C | 54% | 1013.5 hPa | 0 mm | - | - | - |
| 1787885922 | 29.44° C | 53% | 1013.5 hPa | 0 mm | - | - | - |
* Rain since midnight (hover to see other rain measurements)
** Current wind speed in m/s (hover to see current wind gust speed)